| time (UTC) | temp F | wind direction | speed MPH | gust MPH | rain 1hr in | rain 24hr in | rain mn in | humidity % | barometer mb |
| 20260906001726 | 101 | 217 | 2.0 | 11.0 | 0.00 | 0.00 | 0.00 | 31 | 1010.2 |
| 20260906000723 | 101 | 249 | 2.0 | 10.0 | 0.00 | 0.00 | 0.00 | 31 | 1010.1 |
| 20260905235723 | 103 | 286 | 3.0 | 7.0 | 0.00 | 0.00 | 0.00 | 30 | 1010.0 |
| 20260905234723 | 103 | 329 | 0.0 | 7.0 | 0.00 | 0.00 | 0.00 | 30 | 1010.1 |
| 20260905233723 | 102 | 269 | 1.0 | 5.0 | 0.00 | 0.00 | 0.00 | 30 | 1010.1 |
| 20260905231723 | 101 | 247 | 3.0 | 11.0 | 0.00 | 0.00 | 0.00 | 31 | 1010.1 |
| 20260905230723 | 102 | 295 | 2.0 | 8.0 | 0.00 | 0.00 | 0.00 | 31 | 1010.4 |
| 20260905224723 | 101 | 336 | 2.0 | 10.0 | 0.00 | 0.00 | 0.00 | 31 | 1010.2 |
| 20260905222726 | 103 | 254 | 3.0 | 10.0 | 0.00 | 0.00 | 0.00 | 31 | 1010.5 |
| 20260905221724 | 102 | 351 | 2.0 | 8.0 | 0.00 | 0.00 | 0.00 | 31 | 1010.7 |
| 20260905220723 | 101 | 171 | 2.0 | 6.0 | 0.00 | 0.00 | 0.00 | 32 | 1010.7 |
| 20260905215723 | 102 | 163 | 1.0 | 10.0 | 0.00 | 0.00 | 0.00 | 31 | 1010.8 |
| 20260905213723 | 102 | 211 | 6.0 | 8.0 | 0.00 | 0.00 | 0.00 | 31 | 1011.0 |
| 20260905212724 | 101 | 352 | 4.0 | 7.0 | 0.00 | 0.00 | 0.00 | 32 | 1011.5 |
| 20260905211723 | 100 | 358 | 3.0 | 7.0 | 0.00 | 0.00 | 0.00 | 33 | 1011.5 |
| 20260905210723 | 101 | 344 | 2.0 | 7.0 | 0.00 | 0.00 | 0.00 | 32 | 1011.3 |
| 20260905205723 | 100 | 74 | 2.0 | 8.0 | 0.00 | 0.00 | 0.00 | 33 | 1011.7 |
| 20260905203725 | 100 | 247 | 2.0 | 6.0 | 0.00 | 0.00 | 0.00 | 33 | 1012.0 |
| 20260905202723 | 100 | 327 | 1.0 | 7.0 | 0.00 | 0.00 | 0.00 | 33 | 1012.0 |
| 20260905201723 | 100 | 297 | 4.0 | 9.0 | 0.00 | 0.00 | 0.00 | 33 | 1012.4 |
| 20260905200722 | 99 | 40 | 2.0 | 6.0 | 0.00 | 0.00 | 0.00 | 35 | 1012.3 |
| 20260905195722 | 100 | 135 | 2.0 | 7.0 | 0.00 | 0.00 | 0.00 | 33 | 1012.5 |
| 20260905193723 | 99 | 183 | 2.0 | 7.0 | 0.00 | 0.00 | 0.00 | 33 | 1012.7 |
| 20260905192723 | 98 | 214 | 3.0 | 6.0 | 0.00 | 0.00 | 0.00 | 34 | 1012.7 |
| 20260905190723 | 98 | 161 | 0.0 | 4.0 | 0.00 | 0.00 | 0.00 | 34 | 1013.4 |
| 20260905183723 | 98 | 155 | 3.0 | 4.0 | 0.00 | 0.00 | 0.00 | 33 | 1013.8 |
| 20260905182724 | 99 | 146 | 3.0 | 4.0 | 0.00 | 0.00 | 0.00 | 34 | 1013.6 |
| 20260905181723 | 97 | 154 | 0.0 | 5.0 | 0.00 | 0.00 | 0.00 | 36 | 1014.0 |
| 20260905180723 | 95 | 223 | 1.0 | 6.0 | 0.00 | 0.00 | 0.00 | 38 | 1014.1 |
| 20260905175724 | 96 | 243 | 0.0 | 5.0 | 0.00 | 0.00 | 0.00 | 37 | 1014.1 |
| 20260905174723 | 95 | 140 | 0.0 | 4.0 | 0.00 | 0.00 | 0.00 | 38 | 1014.1 |
| 20260905173724 | 94 | 236 | 4.0 | 5.0 | 0.00 | 0.00 | 0.00 | 39 | 1014.1 |
| 20260905172724 | 94 | 65 | 0.0 | 4.0 | 0.00 | 0.00 | 0.00 | 40 | 1014.2 |
| 20260905171722 | 94 | 236 | 4.0 | 4.0 | 0.00 | 0.00 | 0.00 | 38 | 1014.2 |
| 20260905170726 | 94 | 169 | 2.0 | 4.0 | 0.00 | 0.00 | 0.00 | 40 | 1014.3 |
| 20260905165723 | 92 | 223 | 2.0 | 5.0 | 0.00 | 0.00 | 0.00 | 41 | 1014.4 |
| 20260905164723 | 92 | 230 | 1.0 | 7.0 | 0.00 | 0.00 | 0.00 | 43 | 1014.6 |
| 20260905163723 | 91 | 220 | 3.0 | 6.0 | 0.00 | 0.00 | 0.00 | 44 | 1014.5 |
| 20260905162723 | 90 | 247 | 3.0 | 6.0 | 0.00 | 0.00 | 0.00 | 45 | 1014.3 |
| 20260905161723 | 89 | 221 | 4.0 | 5.0 | 0.00 | 0.00 | 0.00 | 45 | 1014.2 |
| 20260905160725 | 88 | 234 | 3.0 | 6.0 | 0.00 | 0.00 | 0.00 | 48 | 1014.3 |
| 20260905155723 | 89 | 181 | 1.0 | 6.0 | 0.00 | 0.00 | 0.00 | 46 | 1014.0 |
| 20260905154723 | 88 | 222 | 3.0 | 5.0 | 0.00 | 0.00 | 0.00 | 49 | 1014.0 |
| 20260905153723 | 87 | 217 | 2.0 | 6.0 | 0.00 | 0.00 | 0.00 | 49 | 1014.1 |
| 20260905152724 | 86 | 186 | 1.0 | 3.0 | 0.00 | 0.00 | 0.00 | 52 | 1013.9 |
| 20260905151723 | 85 | 173 | 2.0 | 3.0 | 0.00 | 0.00 | 0.00 | 54 | 1013.9 |
| 20260905150723 | 84 | 201 | 2.0 | 4.0 | 0.00 | 0.00 | 0.00 | 53 | 1013.8 |
| 20260905144723 | 83 | 216 | 1.0 | 3.0 | 0.00 | 0.00 | 0.00 | 55 | 1013.6 |
| 20260905143724 | 83 | 197 | 2.0 | 3.0 | 0.00 | 0.00 | 0.00 | 54 | 1013.6 |
| 20260905141723 | 82 | 208 | 1.0 | 2.0 | 0.00 | 0.00 | 0.00 | 56 | 1013.5 |
| 20260905140724 | 82 | 247 | 1.0 | 2.0 | 0.00 | 0.00 | 0.00 | 56 | 1013.5 |
| 20260905135723 | 81 | 268 | 0.0 | 2.0 | 0.00 | 0.00 | 0.00 | 57 | 1013.4 |
| 20260905134723 | 80 | 202 | 0.0 | 2.0 | 0.00 | 0.00 | 0.00 | 59 | 1013.4 |
| 20260905133725 | 80 | 156 | 0.0 | 2.0 | 0.00 | 0.00 | 0.00 | 60 | 1013.2 |
| 20260905132723 | 80 | 243 | 0.0 | 2.0 | 0.00 | 0.00 | 0.00 | 60 | 1012.8 |
| 20260905131723 | 79 | 279 | 0.0 | 2.0 | 0.00 | 0.00 | 0.00 | 64 | 1012.8 |
| 20260905125723 | 79 | 230 | 0.0 | 2.0 | 0.00 | 0.00 | 0.00 | 62 | 1012.5 |
| 20260905124723 | 79 | 229 | 0.0 | 2.0 | 0.00 | 0.00 | 0.00 | 61 | 1012.5 |
| 20260905123725 | 79 | 287 | 0.0 | 2.0 | 0.00 | 0.00 | 0.00 | 60 | 1012.5 |
| 20260905122724 | 79 | 220 | 1.0 | 2.0 | 0.00 | 0.00 | 0.00 | 60 | 1012.3 |
| 20260905121723 | 80 | 250 | 0.0 | 2.0 | 0.00 | 0.00 | 0.00 | 59 | 1012.4 |
| 20260905120723 | 80 | 231 | 0.0 | 2.0 | 0.00 | 0.00 | 0.00 | 60 | 1012.3 |
| 20260905115723 | 80 | 211 | 0.0 | 3.0 | 0.00 | 0.00 | 0.00 | 58 | 1012.3 |
| 20260905114723 | 81 | 229 | 1.0 | 3.0 | 0.00 | 0.00 | 0.00 | 57 | 1012.5 |
| 20260905113725 | 81 | 8 | 0.0 | 3.0 | 0.00 | 0.00 | 0.00 | 56 | 1012.5 |
| 20260905111723 | 81 | 174 | 2.0 | 4.0 | 0.00 | 0.00 | 0.00 | 55 | 1012.3 |
| 20260905105723 | 82 | 172 | 2.0 | 3.0 | 0.00 | 0.00 | 0.00 | 54 | 1012.1 |
| 20260905104723 | 82 | 235 | 2.0 | 3.0 | 0.00 | 0.00 | 0.00 | 55 | 1012.1 |
| 20260905103724 | 81 | 208 | 1.0 | 3.0 | 0.00 | 0.00 | 0.00 | 55 | 1012.0 |
| 20260905102724 | 81 | 201 | 2.0 | 3.0 | 0.00 | 0.00 | 0.00 | 55 | 1012.0 |
| 20260905101723 | 81 | 192 | 2.0 | 3.0 | 0.00 | 0.00 | 0.00 | 55 | 1012.0 |
| 20260905100724 | 81 | 190 | 2.0 | 3.0 | 0.00 | 0.00 | 0.00 | 55 | 1011.8 |
| 20260905095724 | 82 | 192 | 2.0 | 4.0 | 0.00 | 0.00 | 0.00 | 54 | 1011.7 |
| 20260905094723 | 83 | 193 | 2.0 | 3.0 | 0.00 | 0.00 | 0.00 | 51 | 1011.9 |
| 20260905092723 | 83 | 190 | 2.0 | 2.0 | 0.00 | 0.00 | 0.00 | 51 | 1011.9 |
| 20260905091723 | 83 | 193 | 1.0 | 2.0 | 0.00 | 0.00 | 0.00 | 51 | 1012.1 |
| 20260905090725 | 83 | 210 | 0.0 | 2.0 | 0.00 | 0.00 | 0.00 | 51 | 1011.9 |
| 20260905085723 | 83 | 201 | 1.0 | 2.0 | 0.00 | 0.00 | 0.00 | 50 | 1012.0 |
| 20260905084726 | 84 | 203 | 1.0 | 2.0 | 0.00 | 0.00 | 0.00 | 50 | 1012.1 |
| 20260905083726 | 84 | 193 | 2.0 | 3.0 | 0.00 | 0.00 | 0.00 | 50 | 1012.3 |
| 20260905082722 | 84 | 191 | 0.0 | 2.0 | 0.00 | 0.00 | 0.00 | 49 | 1012.2 |
| 20260905081723 | 84 | 219 | 1.0 | 2.0 | 0.00 | 0.00 | 0.00 | 49 | 1012.1 |
| 20260905080724 | 84 | 203 | 1.0 | 2.0 | 0.00 | 0.00 | 0.00 | 50 | 1012.1 |
| 20260905075723 | 84 | 201 | 2.0 | 2.0 | 0.00 | 0.00 | 0.00 | 51 | 1012.1 |
| 20260905074723 | 84 | 198 | 1.0 | 2.0 | 0.00 | 0.00 | 0.00 | 52 | 1012.2 |
| 20260905073723 | 85 | 209 | 1.0 | 2.0 | 0.00 | 0.00 | 0.00 | 51 | 1012.0 |
| 20260905072722 | 85 | 207 | 1.0 | 2.0 | 0.00 | 0.00 | 0.00 | 51 | 1011.9 |
| 20260905071723 | 85 | 201 | 2.0 | 3.0 | 0.00 | 0.00 | 0.00 | 50 | 1012.1 |
| 20260905070723 | 85 | 214 | 2.0 | 2.0 | 0.00 | 0.00 | 0.00 | 49 | 1012.0 |
| 20260905065726 | 86 | 205 | 1.0 | 3.0 | 0.00 | 0.00 | 0.00 | 47 | 1012.0 |
| 20260905064723 | 87 | 206 | 2.0 | 2.0 | 0.00 | 0.00 | 0.00 | 46 | 1011.9 |
| 20260905063723 | 88 | 189 | 1.0 | 4.0 | 0.00 | 0.00 | 0.00 | 42 | 1011.8 |
| 20260905062723 | 88 | 215 | 1.0 | 3.0 | 0.00 | 0.00 | 0.00 | 40 | 1011.7 |
| 20260905055724 | 90 | 268 | 2.0 | 4.0 | 0.00 | 0.00 | 0.00 | 36 | 1011.3 |
| 20260905053723 | 91 | 326 | 1.0 | 4.0 | 0.00 | 0.00 | 0.00 | 36 | 1011.5 |
| 20260905052725 | 91 | 263 | 2.0 | 4.0 | 0.00 | 0.00 | 0.00 | 36 | 1011.2 |
| 20260905051723 | 91 | 248 | 2.0 | 4.0 | 0.00 | 0.00 | 0.00 | 36 | 1011.3 |
| 20260905045725 | 93 | 262 | 3.0 | 7.0 | 0.00 | 0.00 | 0.00 | 34 | 1011.2 |
| 20260905044723 | 93 | 271 | 3.0 | 6.0 | 0.00 | 0.00 | 0.00 | 34 | 1011.1 |
| 20260905043723 | 93 | 248 | 4.0 | 8.0 | 0.00 | 0.00 | 0.00 | 34 | 1011.1 |
| 20260905041724 | 94 | 275 | 4.0 | 7.0 | 0.00 | 0.00 | 0.00 | 35 | 1011.0 |
| 20260905035723 | 94 | 215 | 2.0 | 4.0 | 0.00 | 0.00 | 0.00 | 37 | 1010.8 |
| 20260905034723 | 94 | 216 | 2.0 | 4.0 | 0.00 | 0.00 | 0.00 | 35 | 1010.8 |
| 20260905033723 | 94 | 195 | 0.0 | 3.0 | 0.00 | 0.00 | 0.00 | 35 | 1010.9 |
| 20260905032723 | 94 | 202 | 1.0 | 3.0 | 0.00 | 0.00 | 0.00 | 35 | 1010.5 |
| 20260905031726 | 94 | 205 | 2.0 | 3.0 | 0.00 | 0.00 | 0.00 | 35 | 1010.3 |
| 20260905030724 | 94 | 167 | 1.0 | 2.0 | 0.00 | 0.00 | 0.00 | 36 | 1010.4 |
| 20260905025723 | 94 | 192 | 0.0 | 2.0 | 0.00 | 0.00 | 0.00 | 36 | 1010.1 |
| 20260905024723 | 94 | 176 | 1.0 | 2.0 | 0.00 | 0.00 | 0.00 | 36 | 1009.9 |
| 20260905023723 | 95 | 170 | 0.0 | 2.0 | 0.00 | 0.00 | 0.00 | 34 | 1009.9 |
| 20260905022723 | 96 | 202 | 0.0 | 2.0 | 0.00 | 0.00 | 0.00 | 33 | 1009.7 |
| 20260905021728 | 96 | 210 | 0.0 | 2.0 | 0.00 | 0.00 | 0.00 | 32 | 1009.4 |
| 20260905014711 | 97 | 262 | 1.0 | 3.0 | 0.00 | 0.00 | 0.00 | 31 | 1009.6 |
| 20260905013711 | 97 | 224 | 0.0 | 4.0 | 0.00 | 0.00 | 0.00 | 31 | 1009.6 |
| 20260905012711 | 98 | 247 | 2.0 | 5.0 | 0.00 | 0.00 | 0.00 | 31 | 1009.3 |
| 20260905011712 | 98 | 219 | 0.0 | 5.0 | 0.00 | 0.00 | 0.00 | 30 | 1009.3 |
| 20260905010711 | 98 | 282 | 2.0 | 4.0 | 0.00 | 0.00 | 0.00 | 31 | 1009.4 |
| 20260905005712 | 100 | 245 | 0.0 | 4.0 | 0.00 | 0.00 | 0.00 | 29 | 1009.3 |
| 20260905004711 | 100 | 191 | 1.0 | 4.0 | 0.00 | 0.00 | 0.00 | 29 | 1009.5 |
| 20260905003711 | 100 | 264 | 2.0 | 4.0 | 0.00 | 0.00 | 0.00 | 30 | 1009.6 |
| 20260905002711 | 102 | 196 | 2.0 | 7.0 | 0.00 | 0.00 | 0.00 | 29 | 1009.4 |